User: anonymous
Location: Caltech
(34.1382°N, 118.1253°W)
Time: 14:05:49
(UTC-07:00)
Language:

Cosmos 1606 - Orbit

View from above orbital plane
View from above orbital plane
View from above satellite
View from above satellite

Ground track
Ground track

The orbit data is extracted from the following two-line orbital elements,

1 15369U 84111A   14113.16207538  .00005481  00000-0  33529-3 0  5079
2 15369 082.5346 171.1218 0018232 277.1053 082.8103 15.09910796606355
Epoch (UTC): 23 April 2014 03:53:23
Eccentricity: 0.0018232
inclination: 82.5346°
perigee height: 524 km
apogee height: 549 km
right ascension of ascending node: 171.1218°
argument of perigee: 277.1053°
revolutions per day: 15.09910796
mean anomaly at epoch: 82.8103°
orbit number at epoch: 60635

The dashed part of the orbit path shows where the satellite is in the earth's shadow,  

DLR